This demonstration page uses our WeatherBlox Daily Observations layout. Learn more.

Left ArrowRight Arrow

34.74481, -87.66753

Hourly Observations for April 8, 2021

Temp ( °F °C ) Dew Point ( °F °C ) Humidity (%) Winds ( mph kmh ) Pressure ( in mb ) Visibility ( mi km ) Precip ( " mm )
12:00 am 00:00 Cloudy with Nearby Thunderstorms 62 16.7 55 12.8 78 78 W 20 31 29.87 1012 2 3 0.13 3.30
12:07 am 00:07 Cloudy with Strong Thunderstorms 61 16.1 56 13.3 84 84 W 13 20 29.89 1012 2 3 0.23 5.84
12:25 am 00:25 Cloudy with Heavy Rain 61 16.1 56 13.3 84 84 SW 6 9 29.88 1012 2 3 0.51 12.95
12:33 am 00:33 Cloudy with Heavy Rain 61 16.1 56 13.3 84 84 W 9 15 29.87 1011 3 4 0.56 14.22
12:42 am 00:42 Cloudy with Nearby Thunderstorms 61 16.1 56 13.3 84 84 WSW 7 11 29.87 1011 3 5 0.62 15.75
12:53 am 00:53 Cloudy with Nearby Thunderstorms 62 16.7 56 13.3 80 80 SSW 10 17 29.88 1012 3 5 0.68 17.27
12:57 am 00:57 Cloudy with Heavy Rain 62 16.7 56 13.3 80 80 SSW 10 17 29.88 1012 3 4 0.09 2.29
1:06 am 01:06 Cloudy with Heavy Rain 62 16.7 56 13.3 80 80 SSW 6 9 29.86 1011 2 3 0.18 4.57
1:10 am 01:10 Cloudy with Rain 62 16.7 56 13.3 80 80 SW 5 7 29.86 1011 3 5 0.19 4.83
1:27 am 01:27 Cloudy with Thunderstorms 62 16.7 56 13.3 80 80 S 7 11 29.85 1011 5 8 0.23 5.84
1:42 am 01:42 Cloudy with Heavy Rain 61 16.1 56 13.3 84 84 SE 10 17 29.84 1010 4 6 0.29 7.37
1:53 am 01:53 Cloudy with Rain 61 16.1 56 13.3 84 84 SE 9 15 29.79 1009 5 8 0.32 8.13
2:53 am 02:53 Cloudy 62 16.7 57 13.9 84 84 SSE 6 9 29.78 1008 10 16 0.02 0.51
3:08 am 03:08 Cloudy 62 16.7 57 13.9 84 84 SSE 9 15 29.78 1009 10 16 0.00 0.00
3:15 am 03:15 Cloudy 62 16.7 57 13.9 84 84 SSE 10 17 29.78 1009 10 16 0.00 0.00
3:53 am 03:53 Cloudy 62 16.7 57 13.9 84 84 SSE 12 19 29.75 1008 10 16 0.00 0.00
4:26 am 04:26 Cloudy with Nearby Thunderstorms 63 17.2 58 14.4 84 84 SE 6 9 29.77 1008 3 4 0.09 2.29
4:37 am 04:37 Cloudy with Nearby Thunderstorms 63 17.2 58 14.4 84 84 ESE 6 9 29.76 1008 7 11 0.11 2.79
4:53 am 04:53 Cloudy with Nearby Thunderstorms 63 17.2 58 14.4 84 84 Calm 29.74 1007 3 4 0.21 5.33
4:55 am 04:55 Cloudy with Nearby Thunderstorms 63 17.2 58 14.4 84 84 Calm 29.74 1007 2 3 0.02 0.51
5:01 am 05:01 Cloudy with Light Rain 63 17.2 58 14.4 84 84 ESE 6 9 29.75 1008 2 3 0.02 0.51
5:09 am 05:09 Cloudy with Light Rain 63 17.2 59 15 87 87 SE 7 11 29.75 1008 8 13 0.04 1.02
5:53 am 05:53 Cloudy with Heavy Rain 64 17.8 59 15 84 84 S 12 19 29.75 1007 3 5 0.17 4.32
6:02 am 06:02 Cloudy with Light Rain 65 18.3 59 15 81 81 SSW 15 24 29.76 1008 7 11 0.01 0.25
6:06 am 06:06 Cloudy with Light Rain 65 18.3 59 15 81 81 SSW 15 24 29.76 1008 8 13 0.01 0.25
6:53 am 06:53 Cloudy 64 17.8 59 15 84 84 S 10 17 29.75 1008 10 16 0.01 0.25
7:53 am 07:53 Cloudy 64 17.8 58 14.4 81 81 SSW 9 15 29.75 1008 10 16 0.00 0.00
8:53 am 08:53 Cloudy 65 18.3 58 14.4 78 78 SW 7 11 29.77 1008 10 16 0.00 0.00
9:09 am 09:09 Cloudy 66 18.9 59 15 78 78 WSW 10 17 29.78 1008 10 16 0.00 0.00
9:29 am 09:29 Cloudy 66 18.9 58 14.4 75 75 SW 9 15 29.78 1008 10 16 0.00 0.00
9:53 am 09:53 Cloudy 67 19.4 57 13.9 71 71 SW 7 11 29.77 1008 10 16 0.00 0.00
10:53 am 10:53 Cloudy 70 21.1 55 12.8 59 59 WSW 12 19 29.77 1008 10 16 0.00 0.00
11:53 am 11:53 Sunny 73 22.8 49 9.4 43 43 SW 20 31 29.75 1007 10 16 0.00 0.00
12:53 pm 12:53 Sunny 76 24.4 53 11.7 45 45 SSW 16 26 29.72 1006 10 16 0.00 0.00
1:53 pm 13:53 Sunny 78 25.6 52 11.1 40 40 SW 18 30 29.70 1006 10 16 0.00 0.00
2:53 pm 14:53 Mostly Sunny 79 26.1 52 11.1 39 39 SW 25 41 29.69 1006 10 16 0.00 0.00
3:53 pm 15:53 Sunny 78 25.6 50 10 37 37 SW 23 37 29.70 1006 10 16 0.00 0.00
4:53 pm 16:53 Sunny 78 25.6 50 10 37 37 SW 18 30 29.70 1006 10 16 0.00 0.00
5:53 pm 17:53 Sunny 77 25 47 8.3 35 35 WSW 23 37 29.71 1006 10 16 0.00 0.00
6:53 pm 18:53 Sunny 74 23.3 45 7.2 36 36 WSW 15 24 29.74 1007 10 16 0.00 0.00
7:53 pm 19:53 Clear 68 20 47 8.3 47 47 WSW 8 13 29.77 1008 10 16 0.00 0.00
8:53 pm 20:53 Clear 67 19.4 47 8.3 49 49 WSW 6 9 29.80 1009 10 16 0.00 0.00
9:53 pm 21:53 Clear 64 17.8 48 8.9 56 56 Calm 29.81 1010 10 16 0.00 0.00
10:53 pm 22:53 Clear 61 16.1 50 10 67 67 Calm 29.83 1010 10 16 0.00 0.00
11:53 pm 23:53 Clear 58 14.4 50 10 75 75 Calm 29.83 1010 10 16 0.00 0.00

Powered by AerisWeather